Location: Larne
(54.8508°N, 5.8183°W)
Time: 13:43:22
(UTC+01:00)

ISS - Pass Details

Date: 05 October 2021
Orbit: 417 x 423 km, 51.6° (Epoch: 16 October)

Event Time Altitude Azimuth Distance (km) Brightness Sun altitude
Rises 19:17:03 0° 275° (W) 2,366 2.6 -4.9°
Reaches altitude 10° 19:19:34 10° 257° (WSW) 1,499 0.7 -5.3°
Maximum altitude 19:21:59 19° 211° (SSW) 1,082 -1.2 -5.6°
Drops below altitude 10° 19:24:24 10° 165° (SSE) 1,496 -1.1 -6.0°
Enters shadow 19:27:45 -3° 142° (SE) 2,682 0.0 -6.4°
